Flag for Germany Weather past 2 weeks in Merseburg, Saxony-Anhalt, Germany

Now
64 °F

Clear.


Feels Like: 64 °F
Forecast: 49 / 69 °F
Wind: 8 mph from South

Location: Leipzig-Schkeuditz

Current Time: Jun 3, 2015 at 4:00:18 AM

Latest Report: Jun 3, 2015 at 3:20 AM


Visibility: 10 mi

Pressure: 29.98 "Hg

Humidity: 56%

Dew point: 48 °F

Location of MerseburgLocation

Historic Weather in Merseburg — Graph

°F

Merseburg temperature yesterday

Maximum temperature yesterday: 77 °F (at 3:50 PM)
Minimum temperature yesterday: 50 °F (at 2:20 AM)
Average temperature yesterday: 64 °F

Past Weeks' High & Low Weather Summary

 TemperatureHumidityPressure
High77 °F (Jun 2, 3:50 PM)100% (May 29, 6:20 AM)30.33 "Hg (May 29, 6:20 AM)
Low41 °F (May 22, 3:20 AM)28% (May 19, 4:20 PM)29.62 "Hg (May 19, 2:20 AM)
Average57 °F65%30.01 "Hg
* Reported May 19 2:20 AM — Jun 3 2:50 AM, Merseburg, Weather by CustomWeather, © 2015

Note: Actual official high and low records may vary slightly from our data, if they occured in-between our weather recording intervals... More about our weather records

Advertising

Merseburg weather history for previous 24 hours

 ConditionsComfort  
Time TempWeatherWind HumidityBarometerVisibility
2:50 AM
Wed, Jun 3
66 °FClear.9 mph52%29.98 "Hg10 mi
2:20 AM66 °FClear.10 mph52%29.98 "Hg10 mi
1:50 AM66 °FClear.13 mph52%29.98 "Hg10 mi
1:20 AM66 °FClear.12 mph49%29.98 "Hg10 mi
12:50 AM66 °FClear.9 mph49%29.98 "Hg10 mi
12:20 AM64 °FClear.9 mph56%29.98 "Hg10 mi
11:20 PM
Tue, Jun 2
66 °FClear.10 mph52%29.98 "Hg10 mi
10:50 PM68 °FClear.13 mph49%29.98 "Hg10 mi
10:20 PM70 °FClear.14 mph46%29.95 "Hg10 mi
9:50 PM70 °FSunny.13 mph46%29.95 "Hg10 mi
9:20 PM70 °FSunny.12 mph46%29.95 "Hg10 mi
8:50 PM72 °FSunny.12 mph44%29.95 "Hg10 mi
8:20 PM73 °FSunny.15 mph38%29.95 "Hg10 mi
7:50 PM73 °FSunny.16 mph38%29.95 "Hg10 mi
7:20 PM75 °FSunny.22 mph36%29.95 "Hg10 mi
6:50 PM73 °FSunny.18 mph38%29.92 "Hg10 mi
6:20 PM75 °FSunny.16 mph34%29.92 "Hg10 mi
5:50 PM73 °FSunny.18 mph38%29.92 "Hg10 mi
5:20 PM77 °FSunny.22 mph34%29.92 "Hg10 mi
4:50 PM75 °FSunny.22 mph39%29.92 "Hg10 mi
4:20 PM75 °FSunny.22 mph36%29.92 "Hg10 mi
3:50 PM77 °FSunny.24 mph36%29.92 "Hg10 mi
3:20 PM75 °FSunny.25 mph36%29.92 "Hg10 mi
2:50 PM75 °FSunny.21 mph36%29.95 "Hg10 mi
2:20 PM72 °FPartly sunny.20 mph47%29.95 "HgN/A
1:50 PM70 °FPartly sunny.20 mph50%29.95 "HgN/A
1:20 PM68 °FPartly sunny.22 mph49%29.98 "HgN/A
12:50 PM68 °FPartly sunny.17 mph49%29.98 "HgN/A
12:20 PM66 °FPartly sunny.20 mph52%29.98 "HgN/A
11:50 AM66 °FPartly sunny.24 mph56%29.98 "HgN/A
11:20 AM66 °FPartly sunny.25 mph56%29.98 "HgN/A
10:50 AM66 °FPartly sunny.23 mph56%29.98 "HgN/A
10:20 AM66 °FPartly sunny.21 mph60%29.98 "HgN/A
9:50 AM64 °FPartly sunny.21 mph60%29.98 "HgN/A
9:20 AM63 °FScattered clouds.20 mph64%29.98 "HgN/A
8:50 AM61 °FSunny.18 mph68%29.98 "Hg10 mi
8:20 AM59 °FSunny.16 mph72%29.98 "Hg10 mi
7:50 AM57 °FSunny.16 mph77%29.98 "Hg10 mi
7:20 AM55 °FSunny.13 mph82%29.98 "Hg10 mi
6:50 AM54 °FSunny.13 mph88%29.98 "Hg10 mi
6:20 AM54 °FScattered clouds.10 mph88%29.98 "HgN/A
5:20 AM54 °FClear.10 mph88%29.98 "Hg10 mi
4:50 AM52 °FClear.8 mph100%29.98 "Hg10 mi
4:20 AM52 °FClear.7 mph100%29.98 "Hg10 mi
Weather by CustomWeather, © 2015

See weather overviewHow to use our weather pages